Volver al catálogo

TURKSAT 3A

ActivoComunicacionesGEO
NORAD 33056·PAYLOAD·🇹🇷 Turkey

Lanzado Jun 12, 2008 desde Guiana Space Centre

Loading…

TLE

ActualizadoSource: Space-Track

Época: Sep 14, 2026, 22:33 UTC

1 33056U 08030B   26257.93985416  .00000139  00000-0  00000-0 0  9998
2 33056   0.0322  84.9182 0004375  74.0750 215.2603  1.00271977 53258

Sigue TURKSAT 3A en tiempo real con AllMySat

Download on the App Store